CW1187 Weather Reports


Display with metric or nautical units.
time (UTC)temp
F
wind
direction
speed
MPH
gust
MPH
rain 1hr
in
rain 24hr
in
rain mn
in
humidity
%
barometer
mb
20260901041625 80 167 1.0 5.0 0.00 0.00 0.00 77 1017.9
20260901041450 80 205 2.0 5.0 0.00 0.00 0.00 77 1017.9
20260901040424 80 172 2.0 5.0 0.00 0.00 0.00 77 1017.8
20260901033639 80 167 2.0 8.0 0.00 0.00 0.00 78 1017.9
20260901033525 80 167 2.0 8.0 0.00 0.00 0.00 78 1017.9
20260901032838 79 213 3.0 8.0 0.00 0.00 0.00 79 1017.9
20260901032249 79 207 3.0 7.0 0.00 0.00 0.00 79 1017.9
20260901031441 79 172 1.0 6.0 0.00 0.00 0.00 79 1018.0
20260901030451 79 205 2.0 6.0 0.00 0.00 0.00 79 1018.2
20260901023919 80 177 1.0 4.0 0.00 0.00 0.00 79 1018.3
20260901023436 80 155 1.0 3.0 0.00 0.00 0.00 79 1018.5
20260901022931 80 154 1.0 3.0 0.00 0.00 0.00 78 1018.5
20260901022143 80 0 1.0 4.0 0.00 0.00 0.00 78 1018.4
20260901021949 80 140 1.0 5.0 0.00 0.00 0.00 78 1018.4
20260901015940 81 169 1.0 4.0 0.00 0.00 0.00 77 1018.2
20260901015230 81 171 1.0 4.0 0.00 0.00 0.00 76 1018.3
20260901015054 81 171 1.0 4.0 0.00 0.00 0.00 76 1018.3
20260901014854 81 0 0.0 3.0 0.00 0.00 0.00 75 1018.1
20260901014021 82 178 1.0 3.0 0.00 0.00 0.00 75 1017.9
20260901013358 82 177 0.0 3.0 0.00 0.00 0.00 74 1017.8
20260901012439 83 175 1.0 4.0 0.00 0.00 0.00 73 1017.6
20260901011929 83 0 1.0 5.0 0.00 0.00 0.00 73 1017.6
20260901010704 83 0 1.0 3.0 0.00 0.00 0.00 72 1017.4
20260901010440 83 0 0.0 4.0 0.00 0.00 0.00 71 1017.3
20260901010326 83 0 0.0 4.0 0.00 0.00 0.00 71 1017.3
20260901003741 84 0 0.0 2.0 0.00 0.00 0.00 70 1017.3
20260901003521 85 0 0.0 3.0 0.00 0.00 0.00 70 1017.3
20260901003447 85 0 0.0 3.0 0.00 0.00 0.00 70 1017.3
20260901002858 85 0 0.0 3.0 0.00 0.00 0.00 70 1017.3
20260901002132 85 0 0.0 4.0 0.00 0.00 0.00 70 1017.1
20260901001431 85 218 1.0 4.0 0.00 0.00 0.00 69 1017.0
20260831235346 86 0 2.0 8.0 0.00 0.00 0.00 68 1016.8
20260831234249 87 281 1.0 4.0 0.00 0.00 0.00 68 1017.0
20260831232929 87 188 1.0 9.0 0.00 0.00 0.00 66 1017.1
20260831231149 88 200 2.0 12.0 0.00 0.00 0.00 69 1017.0
20260831230928 88 0 2.0 7.0 0.00 0.00 0.00 64 1017.0
20260831230838 88 0 2.0 7.0 0.00 0.00 0.00 64 1017.0
20260831230337 88 240 1.0 8.0 0.00 0.00 0.00 64 1017.2
20260831225430 88 242 2.0 8.0 0.00 0.00 0.00 64 1017.1
20260831225015 89 219 2.0 8.0 0.00 0.00 0.00 64 1017.1
20260831223339 89 219 1.0 9.0 0.00 0.00 0.00 62 1017.1
20260831220456 90 213 2.0 8.0 0.00 0.00 0.00 57 1017.3
20260831215743 91 244 2.0 6.0 0.00 0.00 0.00 58 1017.3
20260831214859 91 254 2.0 12.0 0.00 0.00 0.00 57 1017.5
20260831214347 91 248 2.0 11.0 0.00 0.00 0.00 55 1017.5
20260831212454 93 175 3.0 9.0 0.00 0.00 0.00 53 1017.7
20260831211459 93 268 3.0 9.0 0.00 0.00 0.00 52 1017.8
20260831204433 95 240 1.0 9.0 0.00 0.00 0.00 52 1017.9
20260831203753 95 228 2.0 9.0 0.00 0.00 0.00 52 1017.9
20260831203140 95 211 2.0 7.0 0.00 0.00 0.00 50 1018.0
20260831202940 95 246 2.0 8.0 0.00 0.00 0.00 49 1018.0
20260831202445 95 252 4.0 9.0 0.00 0.00 0.00 50 1018.1
20260831195851 94 229 3.0 8.0 0.00 0.00 0.00 50 1018.4
20260831195429 94 244 2.0 6.0 0.00 0.00 0.00 49 1018.4
20260831195004 94 242 3.0 7.0 0.00 0.00 0.00 53 1018.5
20260831194036 94 257 1.0 7.0 0.00 0.00 0.00 50 1018.6
20260831193852 95 227 1.0 7.0 0.00 0.00 0.00 48 1018.6
20260831193521 95 255 2.0 6.0 0.00 0.00 0.00 51 1018.7
20260831192840 95 235 2.0 10.0 0.00 0.00 0.00 52 1018.8
20260831192433 95 273 3.0 10.0 0.00 0.00 0.00 52 1018.8
20260831191953 95 267 3.0 10.0 0.00 0.00 0.00 55 1018.8
20260831185621 96 254 3.0 9.0 0.00 0.00 0.00 52 1019.1
20260831184828 95 240 3.0 9.0 0.00 0.00 0.00 52 1019.1
20260831183326 94 227 2.0 10.0 0.00 0.00 0.00 52 1019.2
20260831182140 94 236 3.0 8.0 0.00 0.00 0.00 55 1019.3
20260831181957 94 263 3.0 9.0 0.00 0.00 0.00 56 1019.5
20260831181546 93 256 2.0 10.0 0.00 0.00 0.00 55 1019.5
20260831175950 93 215 3.0 10.0 0.00 0.00 0.00 59 1019.6
20260831175445 92 256 2.0 10.0 0.00 0.00 0.00 60 1019.6
20260831174924 92 269 4.0 10.0 0.00 0.00 0.00 59 1019.6
20260831173657 92 290 2.0 8.0 0.00 0.00 0.00 61 1019.7
20260831172617 91 273 2.0 8.0 0.00 0.00 0.00 63 1019.7
20260831171849 92 273 3.0 8.0 0.00 0.00 0.00 62 1019.7
20260831171328 92 271 2.0 7.0 0.00 0.00 0.00 61 1019.7
20260831165219 91 265 1.0 9.0 0.00 0.00 0.00 64 1019.9
20260831164625 91 239 4.0 9.0 0.00 0.00 0.00 64 1019.9
20260831164333 90 255 1.0 11.0 0.00 0.00 0.00 66 1020.0
20260831163846 90 241 5.0 11.0 0.00 0.00 0.00 64 1020.0
20260831163349 90 271 2.0 7.0 0.00 0.00 0.00 66 1019.9
20260831161826 89 234 3.0 8.0 0.00 0.00 0.00 66 1019.9
20260831160332 89 244 2.0 8.0 0.00 0.00 0.00 66 1020.0
20260831155919 89 228 3.0 7.0 0.00 0.00 0.00 67 1019.9
20260831155504 88 239 3.0 8.0 0.00 0.00 0.00 67 1020.0
20260831152955 87 260 5.0 11.0 0.00 0.00 0.00 68 1020.0
20260831152317 87 265 3.0 7.0 0.00 0.00 0.00 69 1020.0
20260831152026 86 239 3.0 7.0 0.00 0.00 0.00 75 1020.0
20260831151320 85 278 3.0 11.0 0.00 0.00 0.00 71 1019.9
20260831150440 84 271 5.0 9.0 0.00 0.00 0.00 73 1019.8
20260831145428 82 242 2.0 7.0 0.00 0.00 0.00 76 1019.8
20260831143932 79 198 1.0 6.0 0.00 0.00 0.00 77 1019.7
20260831142218 79 197 2.0 6.0 0.00 0.00 0.00 78 1019.5
20260831140921 78 215 2.0 9.0 0.00 0.00 0.00 77 1019.6
20260831140756 78 215 2.0 9.0 0.00 0.00 0.00 77 1019.6
20260831140719 78 215 2.0 9.0 0.00 0.00 0.00 77 1019.6
20260831140331 78 211 3.0 9.0 0.00 0.00 0.00 77 1019.6
20260831133915 78 211 2.0 6.0 0.00 0.00 0.00 77 1019.7
20260831132926 78 192 2.0 5.0 0.00 0.00 0.00 77 1019.7
20260831130819 77 209 1.0 6.0 0.00 0.00 0.00 77 1019.5
20260831130319 77 202 2.0 6.0 0.00 0.00 0.00 77 1019.3
20260831125136 76 223 2.0 7.0 0.00 0.00 0.00 79 1019.2
20260831124945 75 213 3.0 7.0 0.00 0.00 0.00 80 1019.1
20260831124239 74 219 1.0 4.0 0.00 0.00 0.00 81 1019.0
20260831123230 74 188 1.0 7.0 0.00 0.00 0.00 81 1018.9
20260831122821 74 167 2.0 7.0 0.00 0.00 0.00 81 1018.9
20260831122439 74 178 2.0 6.0 0.00 0.00 0.00 81 1018.9
20260831121721 73 169 2.0 6.0 0.00 0.00 0.00 81 1018.9
20260831115042 73 186 2.0 6.0 0.00 0.00 0.00 81 1018.9
20260831115014 73 171 1.0 4.0 0.00 0.00 0.00 82 1018.8
20260831113945 73 165 1.0 4.0 0.00 0.00 0.00 82 1018.8
20260831113427 73 207 1.0 3.0 0.00 0.00 0.00 82 1018.8
20260831113352 73 207 1.0 3.0 0.00 0.00 0.00 82 1018.8
20260831110454 72 186 0.0 4.0 0.00 0.00 0.00 83 1018.7
20260831105719 72 0 1.0 4.0 0.00 0.00 0.00 83 1018.7
20260831105235 72 0 1.0 5.0 0.00 0.00 0.00 83 1018.6
20260831102919 72 173 2.0 4.0 0.00 0.00 0.00 84 1018.3
20260831102150 72 167 1.0 4.0 0.00 0.00 0.00 83 1018.2
20260831101801 72 167 0.0 3.0 0.00 0.00 0.00 83 1018.2
20260831101319 72 167 1.0 3.0 0.00 0.00 0.00 83 1018.2
20260831100923 72 173 0.0 2.0 0.00 0.00 0.00 82 1018.3
20260831094739 73 0 0.0 1.0 0.00 0.00 0.00 81 1018.3
20260831094427 73 0 0.0 1.0 0.00 0.00 0.00 81 1018.5
20260831094341 73 0 0.0 1.0 0.00 0.00 0.00 81 1018.5
20260831093958 73 173 0.0 1.0 0.00 0.00 0.00 80 1018.4
20260831093238 73 0 0.0 2.0 0.00 0.00 0.00 80 1018.4
20260831093001 73 0 0.0 2.0 0.00 0.00 0.00 80 1018.3
20260831092929 73 0 0.0 2.0 0.00 0.00 0.00 80 1018.3
20260831092434 73 0 0.0 2.0 0.00 0.00 0.00 80 1018.4
20260831091759 73 0 0.0 2.0 0.00 0.00 0.00 80 1018.3
20260831091418 73 0 0.0 1.0 0.00 0.00 0.00 80 1018.3
20260831090452 74 173 0.0 3.0 0.00 0.00 0.00 80 1018.3
20260831090014 74 173 1.0 3.0 0.00 0.00 0.00 80 1018.2
20260831083225 74 181 0.0 3.0 0.00 0.00 0.00 79 1018.0
20260831082700 74 183 0.0 3.0 0.00 0.00 0.00 79 1018.0
20260831081910 74 184 1.0 3.0 0.00 0.00 0.00 79 1017.8
20260831080401 74 175 1.0 4.0 0.00 0.00 0.00 78 1017.7
20260831075434 74 177 1.0 3.0 0.00 0.00 0.00 78 1017.6
20260831073722 74 0 2.0 4.0 0.00 0.00 0.00 78 1017.6
20260831073414 74 166 0.0 4.0 0.00 0.00 0.00 78 1017.6
20260831072957 74 165 1.0 5.0 0.00 0.00 0.00 78 1017.7
20260831072926 74 165 1.0 5.0 0.00 0.00 0.00 78 1017.7
20260831071837 74 185 1.0 4.0 0.00 0.00 0.00 78 1017.8
20260831071220 74 0 1.0 4.0 0.00 0.00 0.00 79 1017.7
20260831070849 74 182 1.0 5.0 0.00 0.00 0.00 79 1017.7
20260831070250 74 174 1.0 6.0 0.00 0.00 0.00 79 1017.7
20260831070058 74 178 2.0 7.0 0.00 0.00 0.00 79 1017.7
20260831064701 74 140 2.0 7.0 0.00 0.00 0.00 80 1017.5
20260831064216 74 154 3.0 6.0 0.00 0.00 0.00 80 1017.7
20260831063817 74 162 2.0 6.0 0.00 0.00 0.00 80 1017.8
20260831063415 74 179 2.0 7.0 0.00 0.00 0.00 80 1018.0
20260831063330 74 179 2.0 7.0 0.00 0.00 0.00 80 1018.0
20260831062822 74 157 2.0 7.0 0.00 0.00 0.00 80 1018.0
20260831061039 74 142 1.0 4.0 0.00 0.00 0.00 80 1018.4
20260831055925 74 138 2.0 5.0 0.00 0.00 0.00 80 1018.4
20260831054920 74 150 2.0 5.0 0.00 0.00 0.00 80 1018.4
20260831053602 75 159 1.0 3.0 0.00 0.00 0.00 80 1018.6
20260831052839 75 126 1.0 3.0 0.00 0.00 0.00 80 1018.5
20260831052026 75 114 1.0 4.0 0.00 0.00 0.00 80 1018.6
20260831051629 75 121 1.0 4.0 0.00 0.00 0.00 80 1018.6
20260831051118 75 97 1.0 3.0 0.00 0.00 0.00 80 1018.6
20260831050554 75 153 1.0 6.0 0.00 0.00 0.00 79 1018.5
20260831050418 75 132 1.0 6.0 0.00 0.00 0.00 79 1018.5
20260831050342 75 132 1.0 6.0 0.00 0.00 0.00 79 1018.5
20260831045942 75 113 1.0 4.0 0.00 0.00 0.00 80 1018.4
20260831045255 75 119 1.0 4.0 0.00 0.00 0.00 80 1018.4
20260831045024 75 119 1.0 4.0 0.00 0.00 0.00 80 1018.4
20260831044644 75 113 1.0 3.0 0.00 0.00 0.00 80 1018.5
20260831044420 74 0 0.0 3.0 0.00 0.00 0.00 81 1018.5